Weather History for Caribou, ME

Change the Weather History Date:

Tuesday, June 4, 2013

  Actual Average Record
Temperature  
Mean Temperature 53 °F 58 °F  
Max Temperature 61 °F 69 °F 88 °F (1967)
Min Temperature 45 °F 46 °F 32 °F (2002)
Degree Days  
Heating Degree Days 12 8  
Month to date heating degree days 13 33  
Since 1 June heating degree days 13 33  
Since 1 July heating degree days 8376 9222  
Cooling Degree Days 0 1  
Month to date cooling degree days 5 1  
Year to date cooling degree days 13 6  
Since 1 June cooling degree days 5 1  
Growing Degree Days 3 (Base 50)    
Moisture  
Dew Point 39 °F    
Average Humidity 62    
Maximum Humidity 86    
Minimum Humidity 37    
Precipitation  
Precipitation T in 0.11 in 1.48 in (1951)
Month to date precipitation 1.58 0.42  
Year to date precipitation 15.60 13.84  
Snow  
Snow 0.00 in 0.00 in 0.00 in (2002)
Month to date snowfall 0.0 0.0  
Since 1 June snowfall 0.0 0.0  
Since 1 July snowfall 106.9 108.7  
Snow Depth 0.00 in    
Sea Level Pressure  
Sea Level Pressure 29.78 in    
Wind  
Wind Speed 11 mph (West)    
Max Wind Speed 22 mph    
Max Gust Speed 31 mph    
Visibility 10 miles    
Events Rain    
T = Trace of Precipitation, MM = Missing Value Source: NWS Daily Summary

Daily Weather History Graph

Daily Weather History Graph

Search for Another Location

Airport:

Trip Planner

Search our weather history database for the weather conditions in past years. The results will help you decide how hot, cold, wet, or windy it might be!

Date:

Astronomy

Jun. 04, 2013 Rise Set
Actual Time 4:39 AM EDT 8:21 PM EDT
Civil Twilight 4:00 AM EDT 9:00 PM EDT
Nautical Twilight 3:08 AM EDT 9:52 PM EDT
Astronomical Twilight 1:56 AM EDT 11:06 PM EDT
Moon 2:20 AM EDT (6/4) 4:36 PM EDT (6/4)
Length of Visible Light 16h 59m
Length of Day
15h 41m
Waning Crescent, 14% of the Moon is Illuminated
Jun 4
Waning Crescent
Jun 8
New
Jun 16
First Quarter
Jun 23
Full
Jun 30
Last Quarter

Hourly Weather History & Observations

Time (EDT) Temp. Windchill Dew Point Humidity Pressure Visibility Wind Dir Wind Speed Gust Speed Precip Events Conditions
12:54 AM 53.1 °F - 43.0 °F 69% 29.72 in 10.0 mi SW 4.6 mph - N/A   Clear
1:54 AM 52.0 °F - 43.0 °F 71% 29.71 in 10.0 mi West 4.6 mph - N/A   Clear
2:54 AM 48.9 °F - 42.1 °F 77% 29.71 in 10.0 mi WSW 4.6 mph - N/A   Clear
3:54 AM 48.0 °F - 42.1 °F 80% 29.70 in 10.0 mi WSW 3.5 mph - N/A   Clear
4:54 AM 46.0 °F 43.1 °F 42.1 °F 86% 29.70 in 10.0 mi SW 5.8 mph - N/A   Clear
5:54 AM 48.0 °F - 44.1 °F 86% 29.69 in 10.0 mi SSW 3.5 mph - N/A   Clear
6:54 AM 53.1 °F - 45.0 °F 74% 29.69 in 10.0 mi WSW 12.7 mph - N/A   Clear
7:54 AM 55.9 °F - 44.1 °F 64% 29.69 in 10.0 mi WSW 12.7 mph 21.9 mph N/A   Clear
8:54 AM 57.0 °F - 39.9 °F 53% 29.70 in 10.0 mi West 15.0 mph 27.6 mph N/A   Mostly Cloudy
9:54 AM 57.9 °F - 39.9 °F 51% 29.70 in 10.0 mi WSW 17.3 mph 29.9 mph N/A   Mostly Cloudy
10:18 AM 51.8 °F - 42.8 °F 71% 29.71 in 10.0 mi NW 20.7 mph 28.8 mph 0.00 in Rain Light Rain
10:54 AM 53.1 °F - 41.0 °F 64% 29.74 in 10.0 mi WNW 17.3 mph 28.8 mph 0.00 in   Overcast
11:54 AM 55.9 °F - 37.9 °F 51% 29.75 in 10.0 mi NW 19.6 mph 26.5 mph N/A   Mostly Cloudy
12:54 PM 57.9 °F - 34.0 °F 41% 29.76 in 10.0 mi WNW 11.5 mph 21.9 mph N/A   Mostly Cloudy
1:54 PM 59.0 °F - 32.0 °F 36% 29.77 in 10.0 mi West 17.3 mph 27.6 mph N/A   Partly Cloudy
2:54 PM 61.0 °F - 35.1 °F 38% 29.78 in 10.0 mi WNW 11.5 mph 27.6 mph N/A   Scattered Clouds
3:54 PM 59.0 °F - 34.0 °F 39% 29.80 in 10.0 mi WNW 17.3 mph 26.5 mph N/A   Mostly Cloudy
4:54 PM 59.0 °F - 36.0 °F 42% 29.81 in 10.0 mi NW 18.4 mph 26.5 mph N/A   Partly Cloudy
5:54 PM 59.0 °F - 37.9 °F 46% 29.83 in 10.0 mi NW 13.8 mph 21.9 mph N/A   Mostly Cloudy
6:54 PM 55.9 °F - 37.9 °F 51% 29.86 in 10.0 mi WNW 5.8 mph - N/A   Clear
7:54 PM 55.9 °F - 37.0 °F 49% 29.87 in 10.0 mi WNW 9.2 mph 20.7 mph N/A   Clear
8:54 PM 53.1 °F - 39.0 °F 59% 29.90 in 10.0 mi Variable 5.8 mph - N/A   Partly Cloudy
9:54 PM 51.1 °F - 39.0 °F 63% 29.92 in 10.0 mi WNW 3.5 mph - N/A   Clear
10:54 PM 50.0 °F - 39.0 °F 66% 29.94 in 10.0 mi NW 12.7 mph - N/A   Clear
11:54 PM 50.0 °F - 37.0 °F 61% 29.95 in 10.0 mi NW 11.5 mph - N/A   Partly Cloudy